User: anonymous   Login
Location: Unspecified
(0.0000°N, 0.0000°E)
Time: 05:58:32
(UTC+00:00)
Language:

Mayak - Orbit

View from above orbital plane
View from above orbital plane
View from above satellite
View from above satellite

Ground track
Ground track

The orbit data is extracted from the following two-line orbital elements,

1 42830U 17042F   17328.83653291  .00001218  00000-0  12857-3 0  9997
2 42830  97.6081 233.7409 0014841 151.2986 208.9052 14.90969844 19884
Epoch (UTC): 24 November 2017 20:04:36
Eccentricity: 0.0014841
inclination: 97.6081°
perigee height: 584 km
apogee height: 605 km
right ascension of ascending node: 233.7409°
argument of perigee: 151.2986°
revolutions per day: 14.90969844
mean anomaly at epoch: 208.9052°
orbit number at epoch: 1988

The dashed part of the orbit path shows where the satellite is in the earth's shadow,  

DLR